Simultaneous Nadir Overpasses (SNOs) Predictions

Prediction of SNOs between GOES-17 and METOP-C Satellite Orbit:

Table of predicted SNOs for the next 14.0 days since TLE Epoch: 5/30/2025
Index Date Time (GOES-17) GOES-17 Lat,Lon METOP-C Lat,Lon Distance(km) Time Diff (sec)
1 06/01/2025 04:45:57 -0.02,-104.38 -0.90,-108.31 448.22 80
2 06/02/2025 04:22:39 -0.02,-104.38 0.24,-103.32 120.78 80
3 06/03/2025 16:41:31 0.01,-104.44 0.79,-107.88 392.37 80
4 06/04/2025 16:23:32 0.01,-104.44 -0.35,-102.89 177.08 80
5 06/06/2025 04:42:33 -0.01,-104.39 -0.72,-107.48 352.45 80
6 06/07/2025 04:19:14 -0.01,-104.39 0.42,-102.49 216.77 80
7 06/08/2025 16:38:06 0.00,-104.45 0.59,-107.05 296.51 80
8 06/09/2025 16:20:08 0.00,-104.45 -0.55,-102.07 272.73 80
9 06/11/2025 04:39:08 0.00,-104.40 -0.51,-106.65 257.11 80
10 06/12/2025 04:15:50 0.01,-104.40 0.64,-101.66 311.80 80
11 06/13/2025 16:34:42 -0.01,-104.45 0.36,-106.23 201.97 80
